Погода в Солодниках

Россия / Астраханская область     48°24′24″N   45°16′45″E
темп.,
°C
ветер,
м/с
пор.,
м/с
влажн.,
%
обл.,
%
осадки,
мм/ч
давл.,
гПа
погр.,
м
11 мая, вт
вт1101:00+7ююв5988100 0.2 1014501
04:00+7ююв61086100 0.4 1014977
07:00+8ююв81185100 0.1 10161092
10:00+10ююв71274100 0.2 10191393
13:00+13ю81156100 0.2 10201711
16:00+16вюв6844100 0.4 10212090
19:00+15в6105598 0.0 1021388
22:00+11всв51164100 0.0 1021184
12 мая, ср
ср1201:00+10св61465100 0.0 1020259
04:00+10всв5137034 0.0 1019254
07:00+11всв49763 0.0 1019217
10:00+17всв45560 0.0 1019703
13:00+20вюв33420 0.0 10181514
16:00+22в34422 0.0 10181628
19:00+22в2355100 0.0 1017120
22:00+19ссв3666100 0.0 1016134
13 мая, чт
чт1301:00+16ссв368150 0.0 1014105
04:00+14вюв411814 0.0 1014225
07:00+15вюв48760 0.0 1015246
10:00+21юв565989 0.0 1015669
13:00+25юв44480 0.0 10161231
16:00+27ююв33400 0.0 10161470
19:00+26ююв11480 0.0 101625
22:00+21ссв22530 0.0 101612
14 мая, пт
пт1401:00+19в34662 0.0 101650
04:00+17юв34745 0.0 101661
07:00+18вюв37735 0.0 1017195
10:00+25юв68455 0.0 1017586
13:00+30юв7102986 0.0 10161455
16:00+32юв81227100 0.0 10152207
19:00+27юв815326 0.0 1015428
22:00+23юв717280 0.0 1016407
15 мая, сб
сб1501:00+20юв616350 0.0 1016308
04:00+17юв514400 0.0 1016239
07:00+18юв412490 0.0 1016228
10:00+26юв7113335 0.0 1016532
13:00+31ююв91120100 0.0 10162288
16:00+32ююв710215 0.0 10152839
19:00+28ююв48360 0.0 1014162
22:00+22юв511417 0.0 1015158